STARLINK-37732, 69307

Orbit data source: Space-Track

STARLINK-37732, 69307 is a payload satellite owned by SpaceX/Seattle (US) in SSO that was launched on Sat, 30 May 2026 UTC via an FALCON 9 launch vehicle from the Air Force Western Test Range (AFWTR). Payload-class satellites include a variety of spacecraft equipped with specific instruments for various scientific and technological missions. These include communications satellites like Starlink; space stations such as the ISS; scientific satellites like the Hubble; Earth observation satellites from companies like Planet Labs, Umbra, and HawkEye 360; GPS; miniature CubeSats for education and research; and military/defense satellites.

Loading next visibility...
Identifier
69307, 2026-119M
Orbit
SSO
Country
Flag of USUS
Related business
Manufacturer
SpaceX/Seattle
Mission
Operational spacecraft
Bus & Motor
STARLINK V2MO, Unknown motor
Mass
575 kg wet, ~530 kg dry
Launch date (UTC)
2026-05-30 (2 months ago)
Launch vehicle
FALCON 9
Launch site
Air Force Western Test Range (AFWTR)
Object type
Payload
Rocket body
Debris
Shape & HBR
Unknown shape, 17.7 m
Radar Cross Section
Large (>1 m²)

Expand to show TLE details & history
Last TLE update: 17 hours ago

TLE from 17 hours ago
0 STARLINK-37732
1 69307U 26119M   26202.03010088  .00013578  00000-0  42198-3 0  9997
2 69307  97.2845 227.6527 0001173 128.5249 231.6099 15.33457450  9248
Epoch: 2026-07-21T00:43Z
TLE epoch observation values (Epoch: 2026-07-21T00:43:20.716Z)
Latitude
Longitude
-81.98927°
Altitude
469.117 km
Speed
7.631 km/s
True Right ascension
15h 10m 36s
True Declination
0° 00' 00"
Sunlit
Object was in daylight at epoch
Visualization orbit readout
Latitude
Unknown
Longitude
Unknown
Altitude
Unknown
Speed
Unknown
Apparent Right ascension
Unknown
Apparent Declination
Unknown
Sunlit
N/A
Visualization observer readout
Local Sidereal Time
06:12:57
Azimuth
Unknown
Elevation
Unknown
Doppler factor
Unknown
Orbital elements
Apogee altitude
463.251 km
Perigee altitude
461.646 km
Semi-major axis
6,840.586 km
Eccentricity
0.00012
Inclination
97.2845°
RAAN
227.6527°
Arg. of periapsis
128.5249°
True anomaly
231.59937°
Mean anomaly
231.6099°
Eccentric anomaly
231.60463°
Mean motion
3.83622 °/min
Orbital period
93.84 mins
BSTAR
0.00042198
Loading maneuver chart data...
Computing Atmospheric mass density...
Loading historical data...
Loading historical data...
Loading historical data...
Loading historical data...
Loading historical data...
Loading historical data...
Loading historical data...

Documentation

Showing up to 5 results
|